Date String (YYYY-MM-DD hh:mm:ss) UTC,Instrument flags,absolute air pressure of the measurement (hPa),sample flow rate (lpm),inlet stack bypass flow (lpm),air temperature of the measurement (°C),ambient temperature measured by the external sensor (°C),aerosol sample conditioner tube jacket temperature (°C),OPC LED temperature (°C),internal box temperature (°C),relative humidity of the measurement (%),span deviation,mass concentration of particles derived from Lorenz-Mie calculation of OPC scattering (μg/m³),mass concentration of particles derived from Lorenz-Mie calculation of OPC scattering (μg/m³),mass concentration of particles derived from Lorenz-Mie calculation of OPC scattering (μg/m³)
DateTimeUTC,F1_M11,P_M11,Q1_M11,Q2_M11,T1_M11,T2_M11,T3_M11,T4_M11,T5_M11,U1_M11,ZSPAN_M11,X2_M11,X0_M11,X1_M11
2024-04-05 16:00:00,SystemResetWarning,0821.1,5.00,000.00,023.3,022.5,000.0,031.9,025.1,021.3,0000.0,0006.38,0031.42,0004.04
2024-04-05 16:01:00,SystemResetWarning,0821.1,5.00,000.00,023.3,022.5,000.0,031.9,025.1,021.6,0000.0,0006.37,0030.02,0004.05
2024-04-05 16:02:00,SystemResetWarning,0821.0,5.00,000.00,023.3,022.5,000.0,031.9,025.1,021.1,0000.0,0006.35,0027.56,0004.06
2024-04-05 16:03:00,SystemResetWarning,0820.9,5.01,000.00,023.3,022.5,000.0,031.9,025.1,021.0,0000.0,0006.37,0028.41,0004.09
2024-04-05 16:04:00,SystemResetWarning,0821.1,5.00,000.00,023.3,022.5,000.0,031.9,025.1,021.0,0000.0,0006.38,0028.93,0004.11
2024-04-05 16:05:00,SystemResetWarning,0821.3,4.99,000.00,023.3,022.5,000.0,031.9,025.1,021.1,0000.0,0006.38,0027.21,0004.12
2024-04-05 16:06:00,SystemResetWarning,0821.3,4.99,000.00,023.3,022.5,000.0,031.9,025.1,021.2,0000.0,0006.43,0026.26,0004.14
2024-04-05 16:07:00,SystemResetWarning,0821.2,5.00,000.00,023.3,022.5,000.0,031.9,025.1,021.3,0000.0,0006.52,0025.92,0004.17
2024-04-05 16:08:00,SystemResetWarning,0821.0,5.01,000.00,023.3,022.5,000.0,031.9,025.1,021.3,0000.0,0006.49,0026.42,0004.19
2024-04-05 16:09:00,SystemResetWarning,0821.0,5.00,000.00,023.3,022.5,000.0,031.9,025.1,021.6,0000.0,0006.43,0025.72,0004.21
2024-04-05 16:10:00,SystemResetWarning,0821.1,5.00,000.00,023.3,022.5,000.0,031.9,025.1,021.2,0000.0,0006.40,0025.21,0004.23
2024-04-05 16:11:00,SystemResetWarning,0820.8,5.01,000.00,023.3,022.5,000.0,031.9,025.1,021.2,0000.0,0006.43,0024.26,0004.25
2024-04-05 16:12:00,SystemResetWarning,0820.8,5.00,000.00,023.3,022.5,000.0,031.9,025.1,021.1,0000.0,0006.47,0024.45,0004.27
2024-04-05 16:13:00,SystemResetWarning,0821.0,5.00,000.00,023.3,022.5,000.0,031.9,025.1,020.9,0000.0,0006.51,0024.79,0004.29
2024-04-05 16:14:00,SystemResetWarning,0821.3,4.99,000.00,023.3,022.5,000.0,031.8,025.1,021.0,0000.0,0006.49,0024.26,0004.30
2024-04-05 16:15:00,SystemResetWarning,0821.2,5.00,000.00,023.3,022.5,000.0,031.9,025.1,021.1,0000.0,0006.47,0024.66,0004.31
2024-04-05 16:16:00,SystemResetWarning,0821.1,5.00,000.00,023.3,022.5,000.0,031.9,025.1,021.4,0000.0,0006.51,0025.00,0004.33
2024-04-05 16:17:00,SystemResetWarning,0820.9,5.01,000.00,023.3,022.5,000.0,031.9,025.1,021.2,0000.0,0006.51,0026.71,0004.35
2024-04-05 16:18:00,SystemResetWarning,0821.2,5.00,000.00,023.3,022.5,000.0,031.9,025.1,021.4,0000.0,0006.42,0025.79,0004.37
2024-04-05 16:19:00,SystemResetWarning,0820.8,5.00,000.00,023.3,022.5,000.0,031.9,025.1,021.2,0000.0,0006.43,0025.46,0004.40
2024-04-05 16:20:00,SystemResetWarning,0821.0,5.00,000.00,023.3,022.5,000.0,031.9,025.1,021.6,0000.0,0006.52,0026.79,0004.43
2024-04-05 16:21:00,SystemResetWarning,0821.0,4.99,000.00,023.3,022.5,000.0,031.9,025.1,021.8,0000.0,0006.63,0028.51,0004.45
2024-04-05 16:22:00,SystemResetWarning,0820.9,4.99,000.00,023.3,022.5,000.0,031.9,025.1,021.8,0000.0,0006.65,0029.65,0004.47
2024-04-05 16:23:00,SystemResetWarning,0820.8,5.00,000.00,023.3,022.5,000.0,031.9,025.1,021.6,0000.0,0006.63,0029.42,0004.48
2024-04-05 16:24:00,SystemResetWarning,0820.8,5.01,000.00,023.3,022.5,000.0,031.9,025.1,021.3,0000.0,0006.58,0029.03,0004.50
2024-04-05 16:25:00,SystemResetWarning,0820.8,5.00,000.00,023.3,022.5,000.0,031.9,025.1,022.0,0000.0,0006.54,0028.97,0004.52
2024-04-05 16:26:00,SystemResetWarning,0820.8,5.00,000.00,023.3,022.5,000.0,031.9,025.1,021.4,0000.0,0006.59,0028.40,0004.55
2024-04-05 16:27:00,SystemResetWarning,0820.8,5.01,000.00,023.3,022.5,000.0,031.9,025.1,021.4,0000.0,0006.65,0028.56,0004.58
2024-04-05 16:28:00,SystemResetWarning,0820.8,5.00,000.00,023.3,022.5,000.0,031.9,025.1,020.9,0000.0,0006.68,0028.05,0004.59
2024-04-05 16:29:00,SystemResetWarning,0820.8,5.00,000.00,023.3,022.5,000.0,031.9,025.1,020.5,0000.0,0006.76,0027.64,0004.61
2024-04-05 16:30:00,SystemResetWarning,0820.8,5.00,000.00,023.3,022.5,000.0,031.9,025.1,020.7,0000.0,0006.86,0027.46,0004.62
2024-04-05 16:31:00,SystemResetWarning,0820.8,5.00,000.00,023.3,022.4,000.0,031.9,025.1,020.8,0000.0,0006.86,0027.21,0004.64
2024-04-05 16:32:00,SystemResetWarning,0820.8,5.00,000.00,023.3,022.4,000.0,031.9,025.1,021.0,0000.0,0006.86,0026.60,0004.66
2024-04-05 16:33:00,SystemResetWarning,0820.8,5.00,000.00,023.3,022.5,000.0,031.9,025.1,021.3,0000.0,0006.79,0026.54,0004.67
2024-04-05 16:34:00,SystemResetWarning,0820.7,4.99,000.00,023.3,022.5,000.0,031.9,025.1,021.3,0000.0,0006.85,0026.54,0004.69
2024-04-05 16:35:00,SystemResetWarning,0820.7,5.00,000.00,023.3,022.5,000.0,031.9,025.1,021.7,0000.0,0006.85,0027.63,0004.69
2024-04-05 16:36:00,SystemResetWarning,0820.7,5.01,000.00,023.3,022.5,000.0,031.9,025.1,021.1,0000.0,0006.94,0028.25,0004.70
2024-04-05 16:37:00,SystemResetWarning,0820.7,5.00,000.00,023.3,022.5,000.0,031.9,025.1,021.1,0000.0,0006.94,0028.72,0004.71
2024-04-05 16:38:00,SystemResetWarning,0820.7,5.01,000.00,023.3,022.5,000.0,031.9,025.1,021.2,0000.0,0006.86,0028.52,0004.71
2024-04-05 16:39:00,SystemResetWarning,0820.8,5.00,000.00,023.3,022.5,000.0,031.9,025.1,021.5,0000.0,0006.75,0027.22,0004.72
2024-04-05 16:40:00,SystemResetWarning,0820.7,4.99,000.00,023.3,022.5,000.0,031.9,025.1,021.1,0000.0,0006.64,0028.68,0004.72
2024-04-05 16:41:00,SystemResetWarning,0820.7,4.99,000.00,023.3,022.5,000.0,031.9,025.1,021.3,0000.0,0006.60,0028.83,0004.72
2024-04-05 16:42:00,SystemResetWarning,0820.7,5.00,000.00,023.3,022.5,000.0,031.9,025.2,020.8,0000.0,0006.62,0027.99,0004.72
2024-04-05 16:43:00,SystemResetWarning,0820.8,5.00,000.00,023.3,022.5,000.0,031.9,025.2,020.7,0000.0,0006.57,0028.17,0004.73
2024-04-05 16:44:00,SystemResetWarning,0820.8,5.01,000.00,023.3,022.6,000.0,031.9,025.2,020.6,0000.0,0006.63,0026.63,0004.76
2024-04-05 16:45:00,SystemResetWarning,0820.7,5.00,000.00,023.3,022.6,000.0,031.9,025.2,020.8,0000.0,0006.62,0026.18,0004.78
2024-04-05 16:46:00,SystemResetWarning,0820.7,4.99,000.00,023.3,022.6,000.0,031.9,025.2,021.2,0000.0,0006.67,0025.39,0004.81
2024-04-05 16:47:00,SystemResetWarning,0820.7,4.99,000.00,023.3,022.6,000.0,031.9,025.2,021.7,0000.0,0006.60,0024.90,0004.83
2024-04-05 16:48:00,SystemResetWarning,0820.7,5.02,000.00,023.3,022.6,000.0,031.9,025.2,021.8,0000.0,0006.66,0024.56,0004.85
2024-04-05 16:49:00,SystemResetWarning,0820.7,5.01,000.00,023.4,022.7,000.0,031.9,025.2,022.1,0000.0,0006.73,0024.75,0004.87
2024-04-05 16:50:00,SystemResetWarning,0820.7,4.98,000.00,023.4,022.7,000.0,031.9,025.2,022.2,0000.0,0006.86,0025.18,0004.90
2024-04-05 16:51:00,SystemResetWarning,0820.6,5.00,000.00,023.4,022.7,000.0,031.9,025.2,022.4,0000.0,0006.96,0024.16,0004.93
2024-04-05 16:52:00,SystemResetWarning,0820.6,5.00,000.00,023.4,022.7,000.0,031.9,025.2,022.6,0000.0,0006.97,0024.06,0004.96
2024-04-05 16:53:00,SystemResetWarning,0820.6,5.00,000.00,023.4,022.7,000.0,031.9,025.2,022.6,0000.0,0006.95,0024.34,0004.97
2024-04-05 16:54:00,SystemResetWarning,0820.6,5.00,000.00,023.4,022.7,000.0,031.9,025.2,022.5,0000.0,0006.97,0024.11,0004.99
2024-04-05 16:55:00,SystemResetWarning,0820.6,5.01,000.00,023.4,022.7,000.0,031.9,025.2,022.4,0000.0,0006.92,0023.83,0004.98
2024-04-05 16:56:00,SystemResetWarning,0820.6,5.00,000.00,023.4,022.7,000.0,031.9,025.2,022.5,0000.0,0006.93,0024.20,0004.97
2024-04-05 16:57:00,SystemResetWarning,0820.6,5.00,000.00,023.4,022.7,000.0,031.9,025.3,022.7,0000.0,0006.90,0024.24,0004.98
2024-04-05 16:58:00,SystemResetWarning,0820.6,4.99,000.00,023.4,022.7,000.0,031.9,025.2,022.9,0000.0,0006.91,0023.33,0004.98
2024-04-05 16:59:00,SystemResetWarning,0820.6,5.00,000.00,023.4,022.7,000.0,032.0,025.3,022.5,0000.0,0006.88,0023.25,0004.98
